Погода в Витория-да-Конкиста

Бразилия     14°51′12″S   40°51′29″W
темп.,
°C
ветер,
м/с
пор.,
м/с
влажн.,
%
обл.,
%
осадки,
мм/ч
давл.,
гПа
погр.,
м
7 августа, вс
вс700:00+15вюв3118732 0.0 1019290
03:00+15вюв399894 0.0 1018315
06:00+16юв279471 0.0 1018295
09:00+17в269351 0.9 1020279
12:00+19всв358198 0.3 1019510
15:00+24всв225532 0.4 10161058
18:00+20в367088 0.1 1017204
21:00+19всв488215 0.1 1018294
8 августа, пн
пн800:00+15в259697 0.0 1018112
03:00+14в11965 0.0 101817
06:00+13всв119777 0.0 101820
09:00+21св23535 0.0 1019594
12:00+28всв23300 0.0 10161798
15:00+29вюв42245 0.0 10132480
18:00+21в49485 0.0 1016280
21:00+16всв276830 0.0 1019145
9 августа, вт
вт900:00+14в237897 0.0 101960
03:00+13в228394 0.0 101825
06:00+12в22895 0.0 102033
09:00+21всв354450 0.0 1020658
12:00+27в45265 0.0 10171615
15:00+27в542712 0.0 10151749
18:00+20всв394993 0.0 1017261
21:00+15всв39815 0.0 1020217
10 августа, ср
ср1000:00+12всв25965 0.0 1021112
03:00+12всв279620 0.0 1020149
06:00+12св3109713 0.0 1020243
09:00+21ссв56471 0.0 1020656
12:00+27ссв33263 0.0 10171379
15:00+29с32215 0.0 10132279
18:00+21ссв233414 0.0 101529
21:00+17св395849 0.0 1018164
11 августа, чт
чт1100:00+16св267073 0.0 1017110
03:00+16св246794 0.0 101666
06:00+14ссв22734 0.0 101621
09:00+24с34396 0.0 1017520
12:00+31ссз222551 0.0 10151781
15:00+32юв122211 0.0 10122878
18:00+23вюв38424 0.0 1015202
21:00+20вюв310634 0.0 1017244